SCP
0 0 0 0 0 0 0 0 0 0 0 0 0 0 0 0 0 0 0 0 0 0 0 0 0 0 0 0 0 0 0 0 0 0 0 0 0 0
0 0 0 0 0 0 0 0 0 0 0 0 0 0 0 0 0 0 0 0 0 0 0 0 0 0 0 0 0 0 0 0 0 0 0 0 0 0
0 0 0 0 0 0 0 0 0 0 0 0 0 0 1 1 0 0 0 0 0 0 0 0 0 0 0 0 0 0 0 0 0 0 0 0 0 0
0 0 0 0 1 0 0 0 0 0 0 0 0 0 0 0 1 1 0 0 0 0 0 0 0 0 0 0 0 0 0 0 0 0 0 0 0 0
0 0 0 0 0 0 0 0 0 0 1 0 0 0 0 0 0 0 1 0 0 0 0 0 0 0 0 0 0 0 0 0 0 0 0 0 0 0
0 0 0 0 0 1 1 0 0 0 0 0 0 0 0 0 0 0 0 0 0 0 0 0 0 0 0 0 0 0 0 0 0 0 0 0 0 0
0 0 1 0 0 0 0 0 1 0 0 0 0 0 0 0 0 0 0 0 0 0 0 0 0 0 0 0 0 0 0 0 0 0 0 0 0 0
1 1 1 0 0 0 0 0 0 0 1 0 0 0 0 0 0 0 0 0 0 0 0 0 0 0 0 0 0 0 -0 -0 0 0 0 0 0 0
1 1 0 0 0 0 0 0 0 0 0 0 0 0 0 0 0 0 0 0 0 0 0 0 0 0 0 0 0 0 0 -0 -0 -0 -0 0 0 0
1 1 1 1 1 1 0 1 1 1 1 0 0 0 0 0 0 0 0 0 0 0 0 0 0 0 0 0 0 0 0 0 0 0 -0 -0 0 0
1 1 1 1 1 0 0 1 0 0 0 0 0 0 0 0 0 0 0 0 0 0 0 0 0 0 0 0 0 0 0 0 0 0 0 0 0 0
1 2 1 0 0 0 0 0 0 0 0 0 0 0 0 0 0 0 0 0 0 0 0 0 0 0 0 0 0 0 0 0 0 0 0 0 0 0
1 2 1 0 0 0 0 0 0 0 0 0 0 0 0 0 0 0 0 0 0 0 0 0 0 0 0 0 0 0 0 0 0 0 0 0 0 0
1 1 1 0 0 0 0 0 0 0 0 0 0 0 0 0 0 0 0 0 0 0 0 0 0 0 0 0 0 -0 -0 0 0 0 0 0 0 0
0 0 0 0 0 0 0 0 0 0 0 0 0 0 0 0 0 0 0 0 0 0 0 0 0 0 0 0 -0 -0 -0 -0 0 0 0 0 0 0
0 0 0 0 0 0 0 0 0 0 0 0 0 0 0 0 0 0 0 0 0 0 0 0 0 0 0 0 0 -0 -0 -0 0 -0 0 0 0 0
0 0 0 0 0 0 0 0 0 0 0 0 0 0 0 0 0 0 0 0 0 0 0 0 0 0 0 0 -0 -0 -0 -0 0 0 0 0 0 0
0 0 0 0 1 0 0 0 0 0 0 0 0 0 0 0 0 0 0 0 0 0 0 0 0 0 0 0 0 -0 -0 -0 0 0 0 0 0 0
0 0 0 0 1 0 0 0 0 0 0 0 0 0 0 0 0 0 0 0 0 0 0 0 0 0 0 -0 0 -0 -0 -0 0 0 0 0 0 0
0 0 0 0 0 0 0 0 0 0 0 0 0 0 0 0 0 0 0 0 0 0 0 0 0 0 0 0 0 -0 -0 -0 0 0 0 0 0 0
0 0 0 0 0 0 0 0 0 0 0 0 0 0 0 0 0 0 0 0 0 0 0 0 0 0 0 0 0 -0 -0 0 0 0 0 0 0 0
0 0 0 0 0 0 0 0 0 0 0 0 0 0 0 0 0 0 0 0 0 0 0 0 -0 0 0 0 -0 -0 -0 0 0 0 0 0 0 0
0 0 0 0 0 0 0 0 0 0 0 0 0 0 0 0 0 0 0 0 0 0 0 0 -0 0 0 0 -0 -0 -0 -0 0 0 0 0 -0 0
Wind_Speed_500mb
12 14 11 11 14 16 16 18 22 28 29 16 19 22 22 19 22 37 38 38 45 50 44 46 43 42 45 45 46 44 41 39 40 49 54 64 68 70
16 16 18 15 16 17 20 21 22 27 35 28 28 25 23 27 35 49 52 45 49 45 49 46 45 47 48 50 52 53 54 54 50 48 48 56 63 72
23 20 18 19 16 16 23 25 25 27 36 35 31 32 36 40 42 43 46 43 40 47 45 50 58 59 55 56 57 59 60 59 58 57 58 58 59 66
28 25 22 18 22 24 22 24 28 34 34 45 38 37 38 40 42 49 48 48 51 46 49 59 49 47 50 55 57 59 63 63 62 54 51 64 70 68
36 28 25 24 26 26 33 32 30 33 35 38 45 45 46 42 46 44 45 43 44 44 52 52 49 55 63 72 65 61 58 60 63 68 66 51 64 76
36 30 28 29 31 30 33 35 32 37 35 38 44 45 48 50 54 42 45 45 41 44 48 52 57 66 67 65 68 67 59 64 62 60 64 71 79 74
40 31 30 35 40 36 39 37 39 41 41 43 45 47 53 47 47 48 43 43 47 45 54 59 58 62 63 64 66 65 61 59 65 77 89 100 104 98
39 40 35 44 47 44 46 42 39 48 54 48 45 48 59 51 45 43 41 47 53 42 52 61 59 68 70 65 60 67 74 79 85 93 104 118 122 114
43 45 42 38 40 43 40 49 43 46 45 46 53 47 47 43 43 48 49 53 57 53 58 70 53 59 56 59 60 71 77 87 99 115 111 115 114 114
44 48 47 46 41 50 51 44 42 37 41 46 46 46 42 45 55 58 66 64 55 48 47 64 55 64 68 69 67 79 94 106 110 112 101 92 96 98
49 49 49 52 45 48 42 45 41 35 35 43 46 49 56 57 44 39 39 43 50 49 43 52 51 63 67 75 92 93 92 109 109 99 88 83 82 84
46 53 46 41 52 47 39 40 34 34 32 36 42 45 48 44 43 43 46 45 50 54 45 55 60 68 80 82 81 95 114 123 112 89 74 72 73 72
44 46 44 49 51 40 37 40 36 42 44 47 40 37 39 39 35 34 33 42 54 59 57 58 67 70 76 88 91 105 110 116 101 80 65 54 59 66
51 45 47 56 45 40 42 42 40 41 41 32 33 37 37 36 36 37 48 53 52 60 63 56 66 69 76 84 90 110 101 86 77 64 57 57 67 66
40 46 42 46 37 39 39 38 34 35 25 30 34 34 33 35 45 44 46 48 52 52 48 45 59 62 69 79 95 104 83 99 70 60 66 65 65 69
42 37 40 38 37 34 34 30 26 13 25 29 31 28 34 35 38 39 44 45 46 45 48 44 47 61 67 76 82 92 66 81 80 68 66 67 59 68
25 17 25 21 22 21 23 23 21 23 27 27 28 32 34 35 37 37 39 41 43 46 46 54 56 58 56 68 78 81 66 89 81 75 61 41 41 53
24 26 28 30 27 25 27 20 23 26 25 26 29 31 33 34 34 35 34 37 40 42 43 52 55 64 73 68 77 70 67 77 83 75 52 31 35 49
24 22 26 25 21 23 24 27 27 24 30 31 26 30 30 30 32 33 34 35 39 41 43 45 54 68 61 70 73 69 66 70 76 72 56 34 26 45
18 19 20 20 22 23 24 24 23 24 24 25 26 25 25 28 29 31 33 36 40 44 43 43 49 70 51 56 59 74 63 59 59 62 62 35 33 39
15 17 18 20 21 20 20 20 21 22 22 23 17 20 23 25 27 30 32 36 40 40 45 46 50 64 41 49 60 75 72 46 35 40 48 44 21 24
11 13 14 15 16 17 18 19 19 17 17 17 17 19 21 23 26 29 30 35 37 38 39 39 61 37 40 46 56 69 83 57 38 27 36 27 26 11
13 11 11 14 15 17 17 16 15 14 15 15 16 17 20 22 24 26 29 31 34 35 37 39 47 42 46 48 56 68 82 86 68 53 45 51 13 28
Wind_Direction_500mb
245 258 263 264 275 276 276 280 283 299 296 266 294 291 274 270 274 282 289 286 282 283 288 278 277 276 278 279 279 278 280 283 278 269 265 257 255 254
252 249 253 264 267 278 277 279 278 282 291 287 288 292 288 279 281 285 292 286 289 300 296 294 281 278 274 276 278 278 276 278 279 278 276 269 261 253
256 249 258 260 267 275 281 277 279 283 285 288 290 294 290 295 294 287 296 287 283 285 291 289 287 285 283 277 276 276 274 275 277 280 278 275 271 263
252 252 246 256 268 272 280 274 275 274 282 287 289 289 291 296 294 297 290 286 291 279 279 284 297 299 297 289 283 275 271 269 271 276 286 281 272 267
241 245 247 248 257 260 256 266 275 281 285 289 289 293 291 295 297 291 291 285 286 283 287 291 298 297 293 293 296 292 282 272 268 269 281 296 285 272
239 235 246 253 259 276 277 279 278 283 273 278 280 289 293 296 305 292 300 286 290 294 284 284 286 287 288 292 292 291 287 290 290 286 285 290 294 285
241 235 251 260 258 266 272 276 266 277 278 280 284 288 291 291 293 295 295 291 282 287 288 288 286 283 281 282 286 285 285 287 285 283 283 285 290 287
235 244 241 251 263 275 275 282 280 278 278 277 280 281 286 294 292 292 296 294 291 290 287 284 280 282 283 282 280 276 274 280 277 277 281 282 282 280
237 243 252 259 272 281 275 282 285 278 278 281 280 281 287 290 294 294 292 285 287 288 283 286 289 287 286 283 277 284 280 276 277 281 289 283 276 271
240 253 261 255 263 284 286 271 278 273 281 285 287 291 293 289 285 289 291 293 295 292 288 287 293 290 289 291 284 278 280 285 290 291 288 279 271 263
250 254 248 254 284 288 281 273 269 271 282 289 285 280 282 289 297 298 293 290 288 292 291 291 297 297 294 287 283 289 295 306 302 297 289 278 267 265
255 257 263 274 294 284 272 271 269 277 282 274 279 282 298 302 301 291 289 286 290 293 299 296 298 296 295 291 297 291 306 311 309 300 290 276 260 256
250 250 268 279 282 272 269 271 272 274 278 280 287 290 291 290 289 294 292 287 288 289 291 294 295 293 294 301 309 314 314 313 307 301 288 274 262 247
251 265 277 270 265 262 275 279 284 284 285 283 284 287 291 292 291 286 275 287 294 295 308 308 296 298 303 305 314 324 324 323 309 299 287 271 265 258
266 276 257 267 260 270 277 283 284 288 283 284 286 289 292 292 295 304 303 297 296 297 300 294 299 304 305 312 321 326 318 323 316 304 294 282 279 260
266 248 260 263 272 276 286 287 308 284 278 279 290 296 298 300 300 301 301 301 300 299 300 315 312 312 315 323 322 330 317 317 318 311 295 284 270 247
229 242 270 274 266 258 274 270 282 282 290 289 293 296 300 302 302 304 303 306 305 308 310 317 309 320 314 329 330 335 313 315 325 326 315 292 240 236
237 253 264 267 264 277 277 274 279 284 285 286 291 300 301 303 305 308 310 311 314 316 319 319 323 326 324 328 345 336 322 325 324 329 317 304 243 228
261 262 264 270 280 276 274 277 279 279 275 294 296 297 300 302 307 311 314 319 322 321 319 330 332 344 338 335 340 357 336 330 325 327 334 294 277 248
265 255 271 275 271 271 271 271 275 279 286 289 290 296 299 303 310 314 320 325 327 328 326 327 336 338 337 337 336 352 348 336 333 329 331 314 262 248
264 270 273 272 272 269 267 271 276 282 279 289 290 297 300 307 312 318 323 327 333 336 338 340 333 331 335 351 355 358 352 355 354 353 349 333 294 241
265 269 266 260 260 264 265 271 279 285 287 289 290 296 305 311 317 323 328 332 336 339 340 337 338 346 354 5 5 15 13 4 17 23 44 31 328 276
262 270 261 257 263 267 267 271 273 274 276 285 293 302 311 320 324 328 332 335 339 341 344 343 357 0 12 17 26 25 24 20 16 22 33 59 37 263
Wind_Speed_850mb
12 14 11 11 14 16 16 18 22 28 29 16 19 22 22 19 22 37 38 38 45 50 44 46 43 42 45 45 46 44 41 39 40 49 54 64 68 70
16 16 18 15 16 17 20 21 22 27 35 28 28 25 23 27 35 49 52 45 49 45 49 46 45 47 48 50 52 53 54 54 50 48 48 56 63 72
23 20 18 19 16 16 23 25 25 27 36 35 31 32 36 40 42 43 46 43 40 47 45 50 58 59 55 56 57 59 60 59 58 57 58 58 59 66
28 25 22 18 22 24 22 24 28 34 34 45 38 37 38 40 42 49 48 48 51 46 49 59 49 47 50 55 57 59 63 63 62 54 51 64 70 68
36 28 25 24 26 26 33 32 30 33 35 38 45 45 46 42 46 44 45 43 44 44 52 52 49 55 63 72 65 61 58 60 63 68 66 51 64 76
36 30 28 29 31 30 33 35 32 37 35 38 44 45 48 50 54 42 45 45 41 44 48 52 57 66 67 65 68 67 59 64 62 60 64 71 79 74
40 31 30 35 40 36 39 37 39 41 41 43 45 47 53 47 47 48 43 43 47 45 54 59 58 62 63 64 66 65 61 59 65 77 89 100 104 98
39 40 35 44 47 44 46 42 39 48 54 48 45 48 59 51 45 43 41 47 53 42 52 61 59 68 70 65 60 67 74 79 85 93 104 118 122 114
43 45 42 38 40 43 40 49 43 46 45 46 53 47 47 43 43 48 49 53 57 53 58 70 53 59 56 59 60 71 77 87 99 115 111 115 114 114
44 48 47 46 41 50 51 44 42 37 41 46 46 46 42 45 55 58 66 64 55 48 47 64 55 64 68 69 67 79 94 106 110 112 101 92 96 98
49 49 49 52 45 48 42 45 41 35 35 43 46 49 56 57 44 39 39 43 50 49 43 52 51 63 67 75 92 93 92 109 109 99 88 83 82 84
46 53 46 41 52 47 39 40 34 34 32 36 42 45 48 44 43 43 46 45 50 54 45 55 60 68 80 82 81 95 114 123 112 89 74 72 73 72
44 46 44 49 51 40 37 40 36 42 44 47 40 37 39 39 35 34 33 42 54 59 57 58 67 70 76 88 91 105 110 116 101 80 65 54 59 66
51 45 47 56 45 40 42 42 40 41 41 32 33 37 37 36 36 37 48 53 52 60 63 56 66 69 76 84 90 110 101 86 77 64 57 57 67 66
40 46 42 46 37 39 39 38 34 35 25 30 34 34 33 35 45 44 46 48 52 52 48 45 59 62 69 79 95 104 83 99 70 60 66 65 65 69
42 37 40 38 37 34 34 30 26 13 25 29 31 28 34 35 38 39 44 45 46 45 48 44 47 61 67 76 82 92 66 81 80 68 66 67 59 68
25 17 25 21 22 21 23 23 21 23 27 27 28 32 34 35 37 37 39 41 43 46 46 54 56 58 56 68 78 81 66 89 81 75 61 41 41 53
24 26 28 30 27 25 27 20 23 26 25 26 29 31 33 34 34 35 34 37 40 42 43 52 55 64 73 68 77 70 67 77 83 75 52 31 35 49
24 22 26 25 21 23 24 27 27 24 30 31 26 30 30 30 32 33 34 35 39 41 43 45 54 68 61 70 73 69 66 70 76 72 56 34 26 45
18 19 20 20 22 23 24 24 23 24 24 25 26 25 25 28 29 31 33 36 40 44 43 43 49 70 51 56 59 74 63 59 59 62 62 35 33 39
15 17 18 20 21 20 20 20 21 22 22 23 17 20 23 25 27 30 32 36 40 40 45 46 50 64 41 49 60 75 72 46 35 40 48 44 21 24
11 13 14 15 16 17 18 19 19 17 17 17 17 19 21 23 26 29 30 35 37 38 39 39 61 37 40 46 56 69 83 57 38 27 36 27 26 11
13 11 11 14 15 17 17 16 15 14 15 15 16 17 20 22 24 26 29 31 34 35 37 39 47 42 46 48 56 68 82 86 68 53 45 51 13 28
Wind_Direction_850mb
245 258 263 264 275 276 276 280 283 299 296 266 294 291 274 270 274 282 289 286 282 283 288 278 277 276 278 279 279 278 280 283 278 269 265 257 255 254
252 249 253 264 267 278 277 279 278 282 291 287 288 292 288 279 281 285 292 286 289 300 296 294 281 278 274 276 278 278 276 278 279 278 276 269 261 253
256 249 258 260 267 275 281 277 279 283 285 288 290 294 290 295 294 287 296 287 283 285 291 289 287 285 283 277 276 276 274 275 277 280 278 275 271 263
252 252 246 256 268 272 280 274 275 274 282 287 289 289 291 296 294 297 290 286 291 279 279 284 297 299 297 289 283 275 271 269 271 276 286 281 272 267
241 245 247 248 257 260 256 266 275 281 285 289 289 293 291 295 297 291 291 285 286 283 287 291 298 297 293 293 296 292 282 272 268 269 281 296 285 272
239 235 246 253 259 276 277 279 278 283 273 278 280 289 293 296 305 292 300 286 290 294 284 284 286 287 288 292 292 291 287 290 290 286 285 290 294 285
241 235 251 260 258 266 272 276 266 277 278 280 284 288 291 291 293 295 295 291 282 287 288 288 286 283 281 282 286 285 285 287 285 283 283 285 290 287
235 244 241 251 263 275 275 282 280 278 278 277 280 281 286 294 292 292 296 294 291 290 287 284 280 282 283 282 280 276 274 280 277 277 281 282 282 280
237 243 252 259 272 281 275 282 285 278 278 281 280 281 287 290 294 294 292 285 287 288 283 286 289 287 286 283 277 284 280 276 277 281 289 283 276 271
240 253 261 255 263 284 286 271 278 273 281 285 287 291 293 289 285 289 291 293 295 292 288 287 293 290 289 291 284 278 280 285 290 291 288 279 271 263
250 254 248 254 284 288 281 273 269 271 282 289 285 280 282 289 297 298 293 290 288 292 291 291 297 297 294 287 283 289 295 306 302 297 289 278 267 265
255 257 263 274 294 284 272 271 269 277 282 274 279 282 298 302 301 291 289 286 290 293 299 296 298 296 295 291 297 291 306 311 309 300 290 276 260 256
250 250 268 279 282 272 269 271 272 274 278 280 287 290 291 290 289 294 292 287 288 289 291 294 295 293 294 301 309 314 314 313 307 301 288 274 262 247
251 265 277 270 265 262 275 279 284 284 285 283 284 287 291 292 291 286 275 287 294 295 308 308 296 298 303 305 314 324 324 323 309 299 287 271 265 258
266 276 257 267 260 270 277 283 284 288 283 284 286 289 292 292 295 304 303 297 296 297 300 294 299 304 305 312 321 326 318 323 316 304 294 282 279 260
266 248 260 263 272 276 286 287 308 284 278 279 290 296 298 300 300 301 301 301 300 299 300 315 312 312 315 323 322 330 317 317 318 311 295 284 270 247
229 242 270 274 266 258 274 270 282 282 290 289 293 296 300 302 302 304 303 306 305 308 310 317 309 320 314 329 330 335 313 315 325 326 315 292 240 236
237 253 264 267 264 277 277 274 279 284 285 286 291 300 301 303 305 308 310 311 314 316 319 319 323 326 324 328 345 336 322 325 324 329 317 304 243 228
261 262 264 270 280 276 274 277 279 279 275 294 296 297 300 302 307 311 314 319 322 321 319 330 332 344 338 335 340 357 336 330 325 327 334 294 277 248
265 255 271 275 271 271 271 271 275 279 286 289 290 296 299 303 310 314 320 325 327 328 326 327 336 338 337 337 336 352 348 336 333 329 331 314 262 248
264 270 273 272 272 269 267 271 276 282 279 289 290 297 300 307 312 318 323 327 333 336 338 340 333 331 335 351 355 358 352 355 354 353 349 333 294 241
265 269 266 260 260 264 265 271 279 285 287 289 290 296 305 311 317 323 328 332 336 339 340 337 338 346 354 5 5 15 13 4 17 23 44 31 328 276
262 270 261 257 263 267 267 271 273 274 276 285 293 302 311 320 324 328 332 335 339 341 344 343 357 0 12 17 26 25 24 20 16 22 33 59 37 263